{"data":{"norad_id":49091,"epoch":"2026-09-20T03:25:04.878048Z","epoch_age_seconds":52911,"freshness":"FRESH","line1":"1 49091U 21075S   26263.14241757 -.00000371  00000+0 -10669-2 0  9994","line2":"2 49091  87.8976 331.8145 0001563 102.3978 257.7325 13.12442193247004","mean_motion":13.12442193,"eccentricity":0.0001563,"inclination_deg":87.8976,"raan_deg":331.8145,"arg_perigee_deg":102.3978,"mean_anomaly_deg":257.7325,"bstar":-0.0010669,"rev_number":24700,"period_min":109.71911812043,"perigee_km":1212.5397948743,"apogee_km":1214.9130113741,"semimajor_km":7591.8634031242,"source":"CELESTRAK","updated_at":"2026-09-20T09:00:44.655797Z"}}